Location: Monteux
(44.0348°N, 4.9972°E)
Time: 04:12:14
(UTC+00:00)

Cosmos 2341 Rocket - Pass Details

Date: 25 April 2021
Orbit: 969 x 1003 km, 82.9° (Epoch: 11 May)

Event Time Altitude Azimuth Distance (km) Brightness Sun altitude
Rises 02:06:33 0° 332° (NNW) 3,724 7.3 -23.5°
Reaches altitude 10° 02:10:58 10° 304° (WNW) 2,775 6.3 -23.0°
Enters shadow 02:12:51 12° 286° (WNW) 2,637 6.0 -22.8°
